TimeMDT,TemperatureF,Dew PointF,Humidity,Sea Level PressureIn,VisibilityMPH,Wind Direction,Wind SpeedMPH,Gust SpeedMPH,PrecipitationIn,Events,Conditions,WindDirDegrees,DateUTC
12:53 AM,30.9,5.0,33,30.32,10.0,NNE,12.7,-,N/A,,Clear,20,2014-03-16 06:53:00
1:53 AM,24.1,8.1,51,30.36,10.0,South,4.6,-,N/A,,Clear,190,2014-03-16 07:53:00
2:53 AM,25.0,9.0,51,30.36,10.0,NNE,4.6,-,N/A,,Clear,20,2014-03-16 08:53:00
3:53 AM,21.9,9.0,58,30.36,10.0,WNW,6.9,-,N/A,,Clear,300,2014-03-16 09:53:00
4:53 AM,28.0,5.0,38,30.32,10.0,NW,9.2,-,N/A,,Clear,320,2014-03-16 10:53:00
5:53 AM,25.0,8.1,49,30.33,10.0,NW,6.9,-,N/A,,Clear,320,2014-03-16 11:53:00
6:53 AM,25.0,5.0,43,30.37,10.0,NNW,3.5,-,N/A,,Clear,340,2014-03-16 12:53:00
7:53 AM,18.0,10.0,71,30.43,10.0,West,4.6,-,N/A,,Clear,270,2014-03-16 13:53:00
8:53 AM,30.9,10.0,42,30.37,10.0,NNW,6.9,-,N/A,,Clear,330,2014-03-16 14:53:00
9:53 AM,37.9,10.9,33,30.36,10.0,NNW,8.1,-,N/A,,Clear,330,2014-03-16 15:53:00
10:53 AM,42.1,12.9,31,30.33,10.0,Variable,6.9,-,N/A,,Clear,0,2014-03-16 16:53:00
11:53 AM,46.9,15.1,28,30.30,10.0,Variable,6.9,-,N/A,,Clear,0,2014-03-16 17:53:00
12:53 PM,52.0,18.0,26,30.26,10.0,NNW,9.2,-,N/A,,Clear,330,2014-03-16 18:53:00
1:53 PM,55.0,19.0,24,30.25,10.0,North,8.1,-,N/A,,Clear,360,2014-03-16 19:53:00
2:53 PM,57.0,18.0,22,30.20,10.0,ENE,8.1,-,N/A,,Clear,70,2014-03-16 20:53:00
3:32 PM,57.0,18.0,22,30.35,10.0,West,19.6,25.3,N/A,,Clear,270,2014-03-16 21:32:00
3:53 PM,57.9,17.1,20,30.19,10.0,WNW,15.0,25.3,N/A,,Clear,300,2014-03-16 21:53:00
4:53 PM,57.0,18.0,22,30.17,10.0,WNW,18.4,-,N/A,,Clear,300,2014-03-16 22:53:00
5:53 PM,55.9,15.1,20,30.17,10.0,NW,18.4,23.0,N/A,,Clear,320,2014-03-16 23:53:00
6:53 PM,53.1,15.1,22,30.17,10.0,NW,13.8,-,N/A,,Clear,310,2014-03-17 00:53:00
7:53 PM,46.9,17.1,30,30.22,10.0,WNW,8.1,-,N/A,,Clear,300,2014-03-17 01:53:00
8:53 PM,39.0,17.1,41,30.20,10.0,West,12.7,-,N/A,,Clear,270,2014-03-17 02:53:00
9:53 PM,34.0,17.1,50,30.18,10.0,WSW,5.8,-,N/A,,Clear,250,2014-03-17 03:53:00
10:53 PM,28.9,18.0,64,30.17,10.0,Calm,Calm,-,N/A,,Clear,0,2014-03-17 04:53:00
11:53 PM,27.0,21.0,78,30.13,10.0,SW,4.6,-,N/A,,Clear,230,2014-03-17 05:53:00